Weather History for KLND - February, 2013

Change the Weather History Date:

Monday, February 4, 2013

  Actual Average Record
Temperature  
Mean Temperature 35 °F 23 °F  
Max Temperature 48 °F 34 °F 59 °F (1967)
Min Temperature 21 °F 11 °F -35 °F (1899)
Degree Days  
Heating Degree Days 30 42  
Month to date heating degree days 134 171  
Since 1 July heating degree days 4347 4761  
Cooling Degree Days 0 0  
Month to date cooling degree days 0 0  
Year to date cooling degree days 0 0  
Moisture  
Dew Point 14 °F    
Average Humidity 42    
Maximum Humidity 57    
Minimum Humidity 26    
Precipitation  
Precipitation 0.00 in 0.01 in 0.55 in (1959)
Month to date precipitation 0.00 0.06  
Year to date precipitation 0.70 0.47  
Snow  
Snow 0.00 in 0.40 in - ()
Month to date snowfall 0.0 1.3  
Since 1 July snowfall 28.4 44.6  
Snow Depth -    
Sea Level Pressure  
Sea Level Pressure 29.94 in    
Wind  
Wind Speed 4 mph (SW)    
Max Wind Speed 16 mph    
Max Gust Speed 22 mph    
Visibility 10 miles    
Events      
T = Trace of Precipitation, MM = Missing Value Source: NWS Daily Summary

Daily Weather History Graph

Daily Weather History Graph

Search for Another Location

Airport or City:

Trip Planner

Search our weather history database for the weather conditions in past years. The results will help you decide how hot, cold, wet, or windy it might be!

Date:

Astronomy

Feb. 04, 2013 Rise Set
Actual Time 7:25 AM MST 5:32 PM MST
Civil Twilight 6:56 AM MST 6:02 PM MST
Nautical Twilight 6:22 AM MST 6:35 PM MST
Astronomical Twilight 5:49 AM MST 7:08 PM MST
Moon 2:06 AM MST 11:56 AM MST
Length of Visible Light 11h 06m
Length of Day
10h 06m
Last Quarter, 36% of the Moon is Illuminated
Feb 4
Last Quarter
Feb 10
New
Feb 17
First Quarter
Feb 25
Full
Mar 4
Last Quarter

Hourly Weather History & Observations

Time (MST) Temp. Windchill Dew Point Humidity Pressure Visibility Wind Dir Wind Speed Gust Speed Precip Events Conditions
12:53 AM 24.1 °F 19.7 °F 10.0 °F 55% 30.03 in 10.0 mi SSW 3.5 mph - N/A   Clear
1:53 AM 27.0 °F - 10.0 °F 49% 30.00 in 10.0 mi Calm Calm - N/A   Clear
3:53 AM 27.0 °F 21.6 °F 8.1 °F 45% 29.96 in 10.0 mi SSE 4.6 mph - N/A   Clear
4:53 AM 26.1 °F - 9.0 °F 49% 29.96 in 10.0 mi Calm Calm - N/A   Clear
5:53 AM 21.0 °F 9.9 °F 9.0 °F 60% 30.00 in 10.0 mi NW 10.4 mph - N/A   Clear
6:53 AM 28.0 °F - 8.1 °F 43% 29.98 in 10.0 mi Calm Calm - N/A   Clear
7:53 AM 28.9 °F 21.1 °F 9.0 °F 43% 29.98 in 10.0 mi SW 8.1 mph - N/A   Clear
8:53 AM 27.0 °F 19.5 °F 10.9 °F 51% 29.99 in 10.0 mi NNW 6.9 mph - N/A   Clear
9:53 AM 28.9 °F 23.9 °F 12.0 °F 49% 29.97 in 10.0 mi WNW 4.6 mph - N/A   Clear
10:53 AM 35.1 °F 31.0 °F 12.9 °F 40% 29.96 in 10.0 mi SW 4.6 mph - N/A   Clear
11:53 AM 42.1 °F 36.6 °F 15.1 °F 34% 29.93 in 10.0 mi ESE 9.2 mph - N/A   Clear
12:53 PM 44.1 °F 40.1 °F 16.0 °F 32% 29.90 in 10.0 mi SSE 6.9 mph - N/A   Clear
1:53 PM 46.0 °F 43.9 °F 14.0 °F 28% 29.86 in 10.0 mi SSE 4.6 mph - N/A   Clear
2:53 PM 46.0 °F 44.8 °F 16.0 °F 30% 29.87 in 10.0 mi South 3.5 mph - N/A   Clear
3:53 PM 48.0 °F - 16.0 °F 28% 29.86 in 10.0 mi NNW 3.5 mph - N/A   Clear
4:53 PM 43.0 °F 36.8 °F 21.0 °F 42% 29.89 in 10.0 mi WNW 11.5 mph - N/A   Clear
5:53 PM 39.0 °F - 19.9 °F 46% 29.92 in 10.0 mi Calm Calm - N/A   Clear
6:53 PM 37.0 °F 33.3 °F 19.9 °F 50% 29.90 in 10.0 mi SSW 4.6 mph - N/A   Clear
7:53 PM 34.0 °F - 19.0 °F 54% 29.93 in 10.0 mi Calm Calm - N/A   Clear
8:53 PM 35.1 °F 27.9 °F 17.1 °F 48% 29.95 in 10.0 mi WSW 9.2 mph - N/A   Clear
9:53 PM 30.0 °F 26.5 °F 16.0 °F 56% 29.96 in 10.0 mi South 3.5 mph - N/A   Clear
10:53 PM 33.1 °F - 16.0 °F 50% 29.93 in 10.0 mi Calm Calm - N/A   Clear
11:53 PM 33.1 °F 30.0 °F 15.1 °F 48% 29.91 in 10.0 mi South 3.5 mph - N/A   Clear